This demonstration page uses our WeatherBlox Daily Observations layout. Learn more.

Left ArrowRight Arrow

Hourly Observations for November 6, 2020

Temp ( °F °C ) Dew Point ( °F °C ) Humidity (%) Winds ( mph kmh ) Pressure ( in mb ) Visibility ( mi km ) Precip ( " mm )
12:51 am 00:51 Clear 62 16.7 25 -3.9 24 24 E 6 9 29.93 1013 10 16 0.00 0.00
1:51 am 01:51 Clear 68 20 23 -5 18 18 ESE 9 15 29.90 1012 10 16 0.00 0.00
2:51 am 02:51 Clear 69 20.6 23 -5 17 17 E 13 20 29.86 1011 10 16 0.00 0.00
3:51 am 03:51 Clear 70 21.1 23 -5 17 17 E 16 26 29.85 1011 10 16 0.00 0.00
4:51 am 04:51 Clear 69 20.6 24 -4.4 18 18 E 9 15 29.85 1011 10 16 0.00 0.00
5:51 am 05:51 Clear 69 20.6 24 -4.4 18 18 E 13 20 29.85 1011 10 16 0.00 0.00
6:51 am 06:51 Sunny 67 19.4 24 -4.4 20 20 ESE 10 17 29.87 1011 10 16 0.00 0.00
7:51 am 07:51 Sunny 69 20.6 25 -3.9 19 19 ESE 9 15 29.88 1012 10 16 0.00 0.00
8:51 am 08:51 Sunny 71 21.7 25 -3.9 18 18 ESE 10 17 29.89 1012 10 16 0.00 0.00
9:51 am 09:51 Sunny 72 22.2 24 -4.4 17 17 SE 9 15 29.88 1012 10 16 0.00 0.00
10:51 am 10:51 Sunny 75 23.9 24 -4.4 15 15 SSE 13 20 29.85 1011 10 16 0.00 0.00
11:51 am 11:51 Sunny 78 25.6 25 -3.9 14 14 SE 10 17 29.81 1010 10 16 0.00 0.00
12:51 pm 12:51 Sunny 83 28.3 27 -2.8 13 13 SSE 12 19 29.75 1008 10 16 0.00 0.00
1:51 pm 13:51 Sunny 85 29.4 28 -2.2 13 13 E 13 20 29.69 1006 10 16 0.00 0.00
2:51 pm 14:51 Sunny 85 29.4 29 -1.7 13 13 E 8 13 29.67 1005 10 16 0.00 0.00
3:51 pm 15:51 Sunny 84 28.9 30 -1.1 14 14 SSE 7 11 29.66 1004 10 16 0.00 0.00
4:51 pm 16:51 Sunny 83 28.3 30 -1.1 15 15 ESE 3 6 29.65 1004 10 16 0.00 0.00
5:51 pm 17:51 Clear 80 26.7 31 -0.6 17 17 E 7 11 29.65 1004 10 16 0.00 0.00
6:51 pm 18:51 Clear 78 25.6 31 -0.6 18 18 ESE 7 11 29.67 1005 10 16 0.00 0.00
7:51 pm 19:51 Clear 74 23.3 31 -0.6 20 20 SE 5 7 29.68 1005 10 16 0.00 0.00
8:51 pm 20:51 Clear 76 24.4 31 -0.6 19 19 E 8 13 29.68 1005 10 16 0.00 0.00
9:51 pm 21:51 Clear 74 23.3 32 0 21 21 ESE 10 17 29.68 1005 10 16 0.00 0.00
10:51 pm 22:51 Clear 74 23.3 33 0.6 22 22 ESE 10 17 29.67 1005 10 16 0.00 0.00
11:51 pm 23:51 Clear 76 24.4 34 1.1 22 22 SE 14 22 29.65 1004 10 16 0.00 0.00

Powered by AerisWeather